Location: Unspecified
(47.2333°N, 39.7000°E)
Time: 23:17:11
(UTC+00:00)

ISS - Pass Details

Date: 12 July 2022
Orbit: 412 x 420 km, 51.6° (Epoch: 17 August)

Event Time Altitude Azimuth Distance (km) Brightness Sun altitude
Rises 20:29:03 0° 260° (W) 2,348 0.1 -19.7°
Reaches altitude 10° 20:31:10 10° 265° (W) 1,489 -0.9 -19.8°
Maximum altitude 20:34:27 53° 343° (NNW) 519 -3.0 -19.9°
Drops below altitude 10° 20:37:45 10° 62° (ENE) 1,499 -0.8 -20.0°
Sets 20:39:53 0° 67° (ENE) 2,366 0.2 -20.1°
